Monarch Pass, CO

12:15 AM MDT on September 26, 2017 (GMT -0600)
Monarch Pass

Weather History for KMYP - July, 2013

Change the Weather History Date:

Sunday, July 28, 2013

  Actual Average (KALS) Record (KALS)
Temperature  
Mean Temperature 44 °F -  
Max Temperature 46 °F 82 °F 90 °F (2016)
Min Temperature 42 °F 48 °F 35 °F (1986)
Degree Days  
Heating Degree Days 21    
Moisture  
Dew Point 43 °F    
Average Humidity 94    
Maximum Humidity 100    
Minimum Humidity 93    
Precipitation  
Precipitation 0.00 in - - ()
Sea Level Pressure  
Sea Level Pressure 30.57 in    
Wind  
Wind Speed 18 mph (WSW)    
Max Wind Speed 38 mph    
Max Gust Speed 46 mph    
Averages and records for this station are not official NWS values.
T = Trace of Precipitation, MM = Missing Value Source: NWS Daily Summary

Daily Weather History Graph

Daily Weather History Graph

Search for Another Location

Airport or City:

Trip Planner

Search our weather history database for the weather conditions in past years. The results will help you decide how hot, cold, wet, or windy it might be!

Date:

Astronomy

Jul. 28, 2013 Rise Set
Actual Time 6:03 AM MDT 8:18 PM MDT
Civil Twilight 5:34 AM MDT 8:47 PM MDT
Nautical Twilight 4:57 AM MDT 9:23 PM MDT
Astronomical Twilight 4:17 AM MDT 10:03 PM MDT
Moon 11:48 PM MDT (7/28) 12:42 PM MDT (7/28)
Length of Visible Light 15h 13m
Length of Day
14h 14m
Waning Gibbous, 60% of the Moon is Illuminated
Jul 28
Waning Gibbous
Jul 29
Last Quarter
Aug 6
New
Aug 14
First Quarter
Aug 20
Full

Hourly Weather History & Observations

Time (MDT) Temp. Windchill Dew Point Humidity Pressure Visibility Wind Dir Wind Speed Gust Speed Precip Events Conditions
12:15 AM 42.8 °F 34.8 °F 41.0 °F 93% 30.64 in - WSW 17.3 mph - N/A   Overcast
12:35 AM 42.8 °F 36.6 °F 41.0 °F 93% 30.64 in - WSW 11.5 mph - N/A   Overcast
12:55 AM 42.8 °F 35.8 °F 41.0 °F 93% 30.63 in - SSW 13.8 mph - N/A   Overcast
1:15 AM 42.8 °F 35.8 °F 41.0 °F 93% 30.62 in - SSW 13.8 mph - N/A   Overcast
1:35 AM 42.8 °F 35.8 °F 41.0 °F 93% 30.61 in - SSW 13.8 mph - N/A   Overcast
1:55 AM 42.8 °F 34.5 °F 41.0 °F 93% 30.60 in - SSW 18.4 mph - N/A   Overcast
2:15 AM 42.8 °F 34.8 °F 41.0 °F 93% 30.59 in - SSW 17.3 mph - N/A   Unknown
2:35 AM 42.8 °F 34.5 °F 41.0 °F 93% 30.60 in - WSW 18.4 mph - N/A   Unknown
2:55 AM 42.8 °F 35.1 °F 41.0 °F 93% 30.58 in - SSW 16.1 mph - N/A   Overcast
3:15 AM 42.8 °F 34.5 °F 41.0 °F 93% 30.58 in - SSW 18.4 mph - N/A   Overcast
3:35 AM 42.8 °F 34.5 °F 41.0 °F 93% 30.57 in - SSW 18.4 mph - N/A   Overcast
3:55 AM 42.8 °F 34.0 °F 41.0 °F 93% 30.56 in - SSW 20.7 mph - N/A   Overcast
4:15 AM 42.8 °F 34.0 °F 41.0 °F 93% 30.56 in - SSW 20.7 mph - N/A   Overcast
4:35 AM 42.8 °F 35.1 °F 41.0 °F 93% 30.56 in - SSW 16.1 mph - N/A   Overcast
4:55 AM 42.8 °F 35.4 °F 41.0 °F 93% 30.55 in - SSW 15.0 mph - N/A   Overcast
5:15 AM 42.8 °F 35.1 °F 41.0 °F 93% 30.54 in - SSW 16.1 mph - N/A   Overcast
5:35 AM 42.8 °F 34.8 °F 41.0 °F 93% 30.54 in - SSW 17.3 mph - N/A   Overcast
5:55 AM 42.8 °F 34.5 °F 41.0 °F 93% 30.54 in - SSW 18.4 mph - N/A   Overcast
6:15 AM 42.8 °F 35.1 °F 41.0 °F 93% 30.55 in - SSW 16.1 mph - N/A   Overcast
6:35 AM 42.8 °F 34.8 °F 41.0 °F 93% 30.55 in - SSW 17.3 mph - N/A   Overcast
6:55 AM 42.8 °F 34.5 °F 41.0 °F 93% 30.55 in - SW 18.4 mph - N/A   Overcast
7:15 AM 42.8 °F 34.5 °F 41.0 °F 93% 30.55 in - SW 18.4 mph - N/A   Overcast
7:35 AM 42.8 °F 34.3 °F 41.0 °F 93% 30.54 in - SW 19.6 mph - N/A   Overcast
7:55 AM 42.8 °F 34.0 °F 41.0 °F 93% 30.55 in - SW 20.7 mph 28.8 mph N/A   Overcast
8:15 AM 42.8 °F 34.3 °F 41.0 °F 93% 30.55 in - WSW 19.6 mph 24.2 mph N/A   Overcast
8:35 AM 42.8 °F 34.3 °F 42.8 °F 100% 30.55 in - SW 19.6 mph - N/A   Overcast
8:55 AM 42.8 °F 34.5 °F 42.8 °F 100% 30.55 in - SW 18.4 mph - N/A   Overcast
9:15 AM 42.8 °F 34.0 °F 42.8 °F 100% 30.55 in - SW 20.7 mph - N/A   Overcast
9:35 AM 44.6 °F 35.9 °F 42.8 °F 93% 30.55 in - SW 23.0 mph 27.6 mph N/A   Overcast
9:55 AM 44.6 °F 35.7 °F 42.8 °F 93% 30.55 in - SW 24.2 mph 31.1 mph N/A   Overcast
10:15 AM 44.6 °F 36.6 °F 42.8 °F 93% 30.55 in - SW 19.6 mph 28.8 mph N/A   Overcast
10:35 AM 42.8 °F 31.1 °F 42.8 °F 100% 30.54 in - West 38.0 mph 46.0 mph N/A   Overcast
10:55 AM 42.8 °F 31.3 °F 41.0 °F 93% 30.55 in - West 36.8 mph 43.7 mph N/A   Overcast
11:15 AM 42.8 °F 32.5 °F 41.0 °F 93% 30.56 in - West 28.8 mph 40.3 mph N/A   Overcast
11:35 AM 42.8 °F 32.3 °F 42.8 °F 100% 30.55 in - West 29.9 mph 36.8 mph N/A   Overcast
11:55 AM 44.6 °F 35.3 °F 42.8 °F 93% 30.56 in - West 26.5 mph 33.4 mph N/A   Overcast
12:15 PM 44.6 °F 35.9 °F 42.8 °F 93% 30.56 in - West 23.0 mph 33.4 mph N/A   Overcast
12:35 PM 44.6 °F 35.9 °F 42.8 °F 93% 30.56 in - West 23.0 mph 27.6 mph N/A   Overcast
12:55 PM 44.6 °F 35.7 °F 42.8 °F 93% 30.56 in - West 24.2 mph 32.2 mph N/A   Overcast
1:15 PM 44.6 °F 35.9 °F 42.8 °F 93% 30.56 in - West 23.0 mph 28.8 mph N/A   Overcast
1:35 PM 46.4 °F 38.1 °F 44.6 °F 93% 30.56 in - West 24.2 mph 32.2 mph N/A   Overcast
1:55 PM 44.6 °F 35.9 °F 42.8 °F 93% 30.56 in - West 23.0 mph 34.5 mph N/A Thunderstorm Thunderstorm
2:15 PM 44.6 °F 35.1 °F 42.8 °F 93% 30.56 in - WSW 27.6 mph 32.2 mph N/A   Overcast
2:35 PM 46.4 °F 38.5 °F 44.6 °F 93% 30.55 in - West 21.9 mph 25.3 mph N/A   Overcast
2:55 PM 46.4 °F 38.1 °F 44.6 °F 93% 30.54 in - West 24.2 mph 29.9 mph N/A   Overcast
3:15 PM 46.4 °F 37.7 °F 44.6 °F 93% 30.55 in - WSW 26.5 mph 34.5 mph N/A   Overcast
3:35 PM 46.4 °F 37.9 °F 44.6 °F 93% 30.55 in - West 25.3 mph 39.1 mph N/A Thunderstorm Thunderstorm
3:55 PM 46.4 °F 38.7 °F 44.6 °F 93% 30.56 in - WSW 20.7 mph 34.5 mph N/A   Overcast
4:15 PM 44.6 °F 35.1 °F 44.6 °F 100% 30.56 in - West 27.6 mph 33.4 mph N/A   Overcast
4:35 PM 46.4 °F 38.3 °F 44.6 °F 93% 30.56 in - West 23.0 mph 27.6 mph N/A   Overcast
4:55 PM 46.4 °F 41.1 °F 44.6 °F 93% 30.57 in - WSW 11.5 mph 17.3 mph N/A   Overcast
5:15 PM 46.4 °F 40.1 °F 44.6 °F 93% 30.57 in - WSW 15.0 mph - N/A   Overcast
5:35 PM 46.4 °F 41.9 °F 44.6 °F 93% 30.56 in - WSW 9.2 mph - N/A   Overcast
5:55 PM 46.4 °F 40.1 °F 44.6 °F 93% 30.56 in - West 15.0 mph - N/A   Overcast
6:15 PM 46.4 °F 40.7 °F 44.6 °F 93% 30.56 in - SW 12.7 mph - N/A   Overcast
6:35 PM 46.4 °F 41.9 °F 44.6 °F 93% 30.56 in - WSW 9.2 mph 16.1 mph N/A   Overcast
6:55 PM 46.4 °F 40.4 °F 44.6 °F 93% 30.55 in - SW 13.8 mph - N/A   Overcast
7:15 PM 46.4 °F 39.0 °F 44.6 °F 93% 30.56 in - SW 19.6 mph 24.2 mph N/A   Overcast
7:35 PM 44.6 °F 39.7 °F 44.6 °F 100% 30.57 in - WSW 9.2 mph 19.6 mph N/A   Overcast
7:55 PM 46.4 °F 40.4 °F 44.6 °F 93% 30.57 in - SW 13.8 mph - N/A   Overcast
8:15 PM 44.6 °F 40.2 °F 44.6 °F 100% 30.58 in - WSW 8.1 mph 11.5 mph N/A Thunderstorm Thunderstorm
8:35 PM 44.6 °F 38.8 °F 44.6 °F 100% 30.58 in - SW 11.5 mph 16.1 mph N/A   Overcast
8:55 PM 44.6 °F 40.7 °F 42.8 °F 93% 30.58 in - WSW 6.9 mph - N/A   Overcast
9:15 PM 44.6 °F 39.7 °F 42.8 °F 93% 30.58 in - WSW 9.2 mph - N/A   Overcast
9:35 PM 44.6 °F 39.2 °F 42.8 °F 93% 30.60 in - WSW 10.4 mph - N/A   Overcast
9:55 PM 44.6 °F 40.2 °F 42.8 °F 93% 30.60 in - West 8.1 mph - N/A   Overcast
10:15 PM 44.6 °F 37.8 °F 42.8 °F 93% 30.60 in - WSW 15.0 mph - N/A   Overcast
10:35 PM 44.6 °F 37.8 °F 42.8 °F 93% 30.60 in - West 15.0 mph 19.6 mph N/A   Mostly Cloudy
10:55 PM 44.6 °F 37.8 °F 42.8 °F 93% 30.60 in - West 15.0 mph - N/A   Overcast
11:15 PM 42.8 °F 35.4 °F 42.8 °F 100% 30.60 in - West 15.0 mph - N/A   Mostly Cloudy
11:35 PM 42.8 °F 37.0 °F 42.8 °F 100% 30.60 in - West 10.4 mph - N/A   Unknown
11:55 PM 42.8 °F 36.2 °F 41.0 °F 93% 30.61 in - WSW 12.7 mph - N/A   Unknown